�N����,����,�~����,�C��,���x,�C��,����,���ϕ���,�ő�u�ԕ���,�ő厞����,���˗�,�I�_���x,�n�����x,�ő啗���N��,DTYPE
"21/03/25","00:10",0.0,10.6,81.9,1017.1,282.1,1.3,2.0,299.8,0.00,7.7,130.0,"00:01:28",1
"21/03/25","00:20",0.0,10.6,82.2,1016.6,290.1,1.6,1.8,299.0,0.00,7.7,130.0,"00:16:50",1
"21/03/25","00:30",0.0,10.5,82.3,1017.3,309.8,1.3,1.8,311.5,0.00,7.7,130.0,"00:21:44",1
"21/03/25","00:40",0.0,10.5,82.7,1017.1,322.9,1.6,2.2,313.6,0.00,7.7,130.0,"00:32:32",1
"21/03/25","00:50",0.0,10.4,83.1,1017.1,317.4,1.1,1.7,322.6,0.00,7.7,130.0,"00:41:36",1
"21/03/25","01:00",0.0,10.6,83.5,1017.1,328.6,1.6,2.4,336.3,0.00,8.0,130.0,"00:52:58",1
"21/03/25","01:10",0.0,10.7,83.7,1016.8,309.8,1.2,1.9,324.1,0.00,8.1,130.0,"01:01:44",1
"21/03/25","01:20",0.0,10.7,83.9,1016.8,300.3,1.2,2.2,321.7,0.00,8.1,130.0,"01:17:26",1
"21/03/25","01:30",0.0,10.8,83.9,1016.6,296.5,1.5,2.1,332.9,0.00,8.2,130.0,"01:29:54",1
"21/03/25","01:40",0.0,10.9,83.9,1017.3,315.2,1.2,2.6,333.3,0.00,8.3,130.0,"01:30:08",1
"21/03/25","01:50",0.0,10.8,83.9,1016.4,308.1,1.7,2.1,328.2,0.00,8.2,130.0,"01:44:48",1
"21/03/25","02:00",0.0,10.8,83.8,1016.6,293.8,1.2,1.7,315.5,0.00,8.2,130.0,"01:50:24",1
"21/03/25","02:10",0.0,10.8,83.7,1016.6,314.5,1.3,1.9,311.4,0.00,8.2,130.0,"02:01:14",1
"21/03/25","02:20",0.0,10.7,83.8,1016.6,319.2,1.3,1.6,303.0,0.00,8.1,130.0,"02:11:20",1
"21/03/25","02:30",0.0,10.7,83.9,1016.4,326.7,1.6,2.2,327.4,0.00,8.1,130.0,"02:26:24",1
"21/03/25","02:40",0.0,10.4,84.3,1016.1,293.7,1.0,1.8,301.6,0.00,7.9,130.0,"02:39:36",1
"21/03/25","02:50",0.0,10.3,84.8,1015.9,284.6,1.6,1.9,277.2,0.00,7.9,130.0,"02:48:56",1
"21/03/25","03:00",0.0,10.4,85.1,1016.1,322.9,1.5,2.7,330.2,0.00,8.0,130.0,"02:54:56",1
"21/03/25","03:10",0.0,10.4,85.2,1016.1,322.1,1.6,2.1,323.0,0.00,8.1,130.0,"03:00:48",1
"21/03/25","03:20",0.0,10.2,85.4,1016.1,297.8,0.7,1.9,323.2,0.00,7.9,130.0,"03:10:02",1
"21/03/25","03:30",0.0,10.1,85.8,1015.9,328.7,1.3,2.0,325.0,0.00,7.9,130.0,"03:23:52",1
"21/03/25","03:40",0.0,9.9,85.9,1015.9,295.6,1.1,1.6,306.1,0.00,7.7,130.0,"03:37:04",1
"21/03/25","03:50",0.0,10.0,86.5,1015.6,305.3,1.7,2.6,319.7,0.00,7.9,130.0,"03:45:12",1
"21/03/25","04:00",0.0,10.1,86.7,1015.4,283.2,1.3,2.6,328.5,0.00,8.0,130.0,"03:50:24",1
"21/03/25","04:10",0.0,10.2,87.0,1015.6,293.1,1.5,1.7,288.7,0.00,8.2,130.0,"04:00:08",1
"21/03/25","04:20",0.0,10.2,87.2,1015.2,299.7,1.6,2.2,306.1,0.00,8.2,130.0,"04:12:40",1
"21/03/25","04:30",0.0,10.2,87.3,1015.6,282.4,1.2,1.6,294.4,0.00,8.2,130.0,"04:28:00",1
"21/03/25","04:40",0.0,10.3,87.6,1015.4,317.2,2.0,2.9,317.3,0.00,8.4,130.0,"04:38:32",1
"21/03/25","04:50",0.0,10.4,87.7,1015.4,327.2,1.2,2.0,333.1,0.00,8.5,130.0,"04:40:02",1
"21/03/25","05:00",0.0,10.3,87.9,1015.9,299.0,1.7,2.4,319.1,0.00,8.4,130.0,"04:51:20",1
"21/03/25","05:10",0.0,10.5,88.1,1015.9,283.8,1.7,2.1,301.0,0.00,8.7,130.0,"05:06:00",1
"21/03/25","05:20",0.0,10.5,88.2,1015.6,296.0,1.3,1.7,315.4,0.00,8.7,130.0,"05:14:24",1
"21/03/25","05:30",0.0,10.6,88.3,1015.6,328.2,1.0,1.7,309.3,0.00,8.8,130.0,"05:20:48",1
"21/03/25","05:40",0.0,10.4,88.5,1015.9,286.2,1.2,1.7,263.0,0.00,8.6,130.0,"05:34:48",1
"21/03/25","05:50",0.0,10.2,88.7,1015.9,309.6,1.2,1.4,296.1,0.00,8.5,130.0,"05:40:16",1
"21/03/25","06:00",0.0,10.3,88.9,1015.9,329.9,1.3,2.1,332.9,0.00,8.6,130.0,"05:51:20",1
"21/03/25","06:10",0.0,10.1,89.1,1015.9,311.2,1.7,2.1,313.9,0.00,8.4,130.0,"06:04:00",1
"21/03/25","06:20",0.0,9.9,89.3,1015.6,290.9,1.1,1.3,315.9,0.00,8.3,130.0,"06:10:16",1
"21/03/25","06:30",0.0,10.1,89.7,1016.1,295.6,1.3,2.0,310.6,0.00,8.5,130.0,"06:29:44",1
"21/03/25","06:40",0.0,10.4,89.8,1015.6,319.7,1.7,2.7,320.1,0.00,8.8,130.0,"06:31:36",1
"21/03/25","06:50",0.0,10.5,90.0,1015.6,304.2,1.2,1.7,312.3,0.00,9.0,130.0,"06:48:00",1
"21/03/25","07:00",0.0,10.6,90.2,1015.6,292.3,1.5,2.1,308.2,0.00,9.1,130.0,"06:52:16",1
"21/03/25","07:10",0.0,10.8,90.3,1015.6,311.1,1.2,1.4,335.6,0.00,9.3,130.0,"07:03:36",1
"21/03/25","07:20",0.0,10.9,90.4,1015.9,285.8,1.2,1.7,274.5,0.01,9.4,130.0,"07:14:16",1
"21/03/25","07:30",0.0,11.3,90.5,1015.9,345.4,0.7,1.4,308.5,0.02,9.8,130.0,"07:22:48",1
"21/03/25","07:40",0.0,11.5,90.3,1016.4,308.4,1.2,1.9,321.0,0.02,10.0,130.0,"07:36:52",1
"21/03/25","07:50",0.0,11.7,90.3,1016.4,324.9,0.6,1.6,320.4,0.02,10.2,130.0,"07:40:32",1
"21/03/25","08:00",0.0,11.8,90.2,1016.6,276.9,0.3,0.8,274.2,0.03,10.3,130.0,"07:51:20",1
"21/03/25","08:10",0.0,12.0,90.2,1016.1,228.4,0.1,0.5,115.6,0.04,10.5,130.0,"08:05:14",1
"21/03/25","08:20",0.0,12.3,90.1,1016.1,298.3,0.5,1.0,317.2,0.05,10.8,130.0,"08:19:12",1
"21/03/25","08:30",0.0,12.6,89.9,1016.6,290.5,0.7,0.9,327.9,0.05,11.0,130.0,"08:20:40",1
"21/03/25","08:40",0.0,12.7,89.6,1016.4,301.1,1.0,1.2,332.2,0.02,11.1,130.0,"08:39:20",1
"21/03/25","08:50",0.0,12.5,89.4,1016.6,328.6,1.1,1.6,334.0,0.02,10.8,130.0,"08:45:10",1
"21/03/25","09:00",0.0,12.5,89.0,1016.6,325.7,1.2,1.8,337.2,0.02,10.8,130.0,"08:55:04",1
"21/03/25","09:10",0.0,12.6,88.7,1016.8,291.7,1.5,1.8,298.6,0.02,10.8,130.0,"09:06:50",1
"21/03/25","09:20",0.0,12.7,88.3,1016.6,288.9,1.1,1.4,313.0,0.04,10.9,130.0,"09:10:08",1
"21/03/25","09:30",0.0,13.0,88.0,1017.1,305.2,1.3,1.9,313.9,0.04,11.1,130.0,"09:23:04",1
"21/03/25","09:40",0.2,13.1,87.9,1016.8,307.3,1.3,2.0,332.7,0.05,11.2,130.0,"09:30:40",1
"21/03/25","09:50",0.0,13.2,88.1,1017.1,319.8,1.6,2.0,333.1,0.07,11.3,130.0,"09:40:24",1
"21/03/25","10:00",0.0,13.4,88.4,1017.1,308.6,1.3,1.8,335.9,0.09,11.6,130.0,"09:50:40",1
"21/03/25","10:10",0.2,13.6,88.5,1016.8,300.3,1.2,1.7,303.8,0.11,11.8,130.0,"10:07:12",1
"21/03/25","10:20",0.0,13.7,88.6,1016.8,277.2,1.3,1.9,256.8,0.09,11.9,130.0,"10:17:20",1
"21/03/25","10:30",0.0,13.5,88.6,1017.1,287.0,1.6,2.2,254.7,0.08,11.7,130.0,"10:23:28",1
"21/03/25","10:40",0.0,13.1,88.5,1016.8,310.3,2.0,2.5,325.3,0.06,11.3,130.0,"10:33:36",1
"21/03/25","10:50",0.2,13.0,88.4,1017.1,311.4,2.0,3.1,326.8,0.05,11.2,130.0,"10:48:48",1
"21/03/25","11:00",0.2,13.0,88.6,1017.3,322.6,2.0,2.8,325.1,0.04,11.2,130.0,"10:51:20",1
"21/03/25","11:10",0.2,13.1,88.7,1017.1,327.6,1.5,2.1,313.2,0.06,11.3,130.0,"11:03:12",1
"21/03/25","11:20",0.2,13.2,88.9,1016.8,327.7,1.6,2.7,330.5,0.06,11.5,130.0,"11:15:12",1
"21/03/25","11:30",0.4,13.0,89.0,1016.8,329.1,1.1,2.2,338.3,0.05,11.3,130.0,"11:20:32",1
"21/03/25","11:40",0.2,12.8,89.3,1016.6,335.6,1.0,1.7,321.6,0.05,11.1,130.0,"11:39:04",1
"21/03/25","11:50",0.2,12.8,89.4,1016.6,356.9,0.5,1.2,322.8,0.10,11.1,130.0,"11:45:04",1
"21/03/25","12:00",0.0,13.0,89.5,1016.8,228.0,0.3,0.8,141.6,0.11,11.4,130.0,"11:54:24",1
"21/03/25","12:10",0.0,12.9,89.6,1016.8,83.8,0.5,1.0,116.0,0.14,11.3,130.0,"12:00:24",1
"21/03/25","12:20",0.2,13.1,89.5,1016.6,358.0,0.2,0.8,332.7,0.14,11.5,130.0,"12:10:24",1
"21/03/25","12:30",0.0,13.4,89.3,1016.4,278.1,0.5,1.4,247.0,0.14,11.7,130.0,"12:26:48",1
"21/03/25","12:40",0.0,13.6,89.3,1016.1,318.7,1.2,1.7,323.8,0.15,11.9,130.0,"12:37:44",1
"21/03/25","12:50",0.0,13.5,89.2,1016.4,50.4,0.5,1.2,335.1,0.16,11.8,130.0,"12:41:28",1
"21/03/25","13:00",0.0,13.8,88.7,1016.1,280.9,1.0,1.7,283.9,0.17,12.0,130.0,"12:53:04",1
"21/03/25","13:10",0.2,13.8,88.8,1016.1,289.0,1.3,2.5,304.8,0.18,12.0,130.0,"13:04:56",1
"21/03/25","13:20",0.0,14.0,88.6,1015.9,260.2,1.0,1.9,240.3,0.21,12.2,130.0,"13:11:36",1
"21/03/25","13:30",0.0,14.4,88.1,1015.6,247.2,0.6,1.6,247.5,0.22,12.5,130.0,"13:29:36",1
"21/03/25","13:40",0.0,14.5,87.5,1015.4,281.3,1.1,2.9,336.8,0.23,12.5,130.0,"13:38:48",1
"21/03/25","13:50",0.0,14.6,87.0,1015.4,310.8,1.3,3.2,338.4,0.22,12.5,130.0,"13:44:48",1
"21/03/25","14:00",0.0,14.8,85.9,1015.2,315.3,1.3,2.2,333.6,0.22,12.5,130.0,"13:56:40",1
"21/03/25","14:10",0.0,15.5,85.4,1014.9,266.8,0.7,1.7,313.7,0.29,13.1,130.0,"14:00:08",1
"21/03/25","14:20",0.0,15.9,83.8,1014.7,307.8,0.7,1.6,269.0,0.29,13.2,130.0,"14:16:40",1
"21/03/25","14:30",0.0,16.5,82.3,1014.2,230.3,0.6,1.7,112.6,0.38,13.5,130.0,"14:28:48",1
"21/03/25","14:40",0.0,15.6,80.1,1014.7,230.4,1.3,2.6,216.4,0.20,12.2,130.0,"14:39:52",1
"21/03/25","14:50",0.0,15.6,81.4,1014.2,224.4,1.6,2.9,228.6,0.26,12.5,130.0,"14:45:20",1
"21/03/25","15:00",0.0,15.6,80.0,1014.0,205.2,1.7,2.7,226.5,0.26,12.2,130.0,"14:50:16",1
"21/03/25","15:10",0.0,15.4,80.4,1014.5,174.8,1.0,2.2,204.6,0.14,12.1,130.0,"15:02:00",1
"21/03/25","15:20",0.0,15.2,80.9,1014.2,208.0,1.6,2.9,192.1,0.10,12.0,130.0,"15:14:16",1
"21/03/25","15:30",0.0,15.3,81.1,1014.0,260.9,0.8,1.4,215.8,0.11,12.1,130.0,"15:20:32",1
"21/03/25","15:40",0.0,15.5,80.6,1014.0,251.7,0.6,1.6,199.6,0.10,12.2,130.0,"15:35:28",1
"21/03/25","15:50",0.0,15.5,80.8,1013.8,188.3,0.5,1.3,197.5,0.09,12.3,130.0,"15:46:40",1
"21/03/25","16:00",0.0,16.1,80.1,1013.5,219.7,0.8,1.9,237.4,0.29,12.7,130.0,"15:59:44",1
"21/03/25","16:10",0.0,16.0,78.0,1013.5,193.6,0.8,2.4,149.6,0.17,12.2,130.0,"16:00:02",1
"21/03/25","16:20",0.0,15.8,77.8,1013.8,258.8,0.7,1.6,173.6,0.06,12.0,130.0,"16:10:24",1
"21/03/25","16:30",0.0,15.9,78.0,1013.5,245.5,0.5,2.0,211.1,0.06,12.1,130.0,"16:29:52",1
"21/03/25","16:40",0.0,15.9,78.1,1013.5,243.4,0.6,1.1,254.0,0.10,12.1,130.0,"16:38:56",1
"21/03/25","16:50",0.0,15.9,77.8,1013.8,276.5,0.6,1.7,317.9,0.08,12.1,130.0,"16:40:56",1
"21/03/25","17:00",0.0,16.0,77.8,1014.0,249.1,0.8,1.7,241.5,0.10,12.2,130.0,"16:55:44",1
"21/03/25","17:10",0.0,15.4,77.6,1013.5,228.3,1.1,1.8,191.0,0.03,11.5,130.0,"17:05:28",1
"21/03/25","17:20",0.0,15.2,79.0,1014.0,226.7,0.8,1.6,195.9,0.03,11.6,130.0,"17:18:40",1
"21/03/25","17:30",0.0,15.1,79.6,1013.5,241.7,0.6,1.2,252.8,0.03,11.6,130.0,"17:20:02",1
"21/03/25","17:40",0.0,15.1,79.6,1013.8,260.7,1.1,1.8,244.7,0.02,11.6,130.0,"17:33:52",1
"21/03/25","17:50",0.0,15.3,80.1,1014.2,307.3,1.3,2.4,329.5,0.01,11.9,130.0,"17:46:16",1
"21/03/25","18:00",0.0,15.0,80.7,1013.5,298.4,1.5,2.1,262.2,0.00,11.8,130.0,"17:58:08",1
"21/03/25","18:10",0.0,14.1,82.0,1014.0,313.0,1.6,2.4,300.9,0.00,11.1,130.0,"18:00:24",1
"21/03/25","18:20",0.0,13.7,83.5,1014.0,291.2,1.5,2.4,300.9,0.00,11.0,130.0,"18:19:54",1
"21/03/25","18:30",0.0,13.2,84.9,1013.8,306.4,1.7,2.5,305.1,0.00,10.8,130.0,"18:20:16",1
"21/03/25","18:40",0.0,12.9,86.0,1013.8,300.3,1.6,2.2,291.1,0.00,10.7,130.0,"18:38:28",1
"21/03/25","18:50",0.0,12.5,86.9,1013.8,294.9,1.8,2.6,316.5,0.00,10.4,130.0,"18:45:12",1
"21/03/25","19:00",0.0,12.2,87.8,1013.5,295.0,1.7,2.2,318.2,0.00,10.3,130.0,"18:50:42",1
"21/03/25","19:10",0.0,11.9,88.5,1014.0,298.9,2.2,2.8,302.6,0.00,10.1,130.0,"19:06:24",1
"21/03/25","19:20",0.0,11.7,89.1,1013.8,292.0,2.0,2.7,307.2,0.00,10.0,130.0,"19:15:12",1
"21/03/25","19:30",0.0,11.5,89.6,1014.0,305.5,2.3,2.8,305.3,0.00,9.9,130.0,"19:23:44",1
"21/03/25","19:40",0.0,11.3,90.1,1014.2,314.6,2.2,3.3,304.4,0.00,9.8,130.0,"19:30:08",1
"21/03/25","19:50",0.0,11.0,90.4,1014.2,297.3,1.8,2.4,307.4,0.00,9.5,130.0,"19:47:44",1
"21/03/25","20:00",0.0,10.9,90.8,1014.5,302.1,2.2,2.8,319.8,0.00,9.5,130.0,"19:55:04",1
"21/03/25","20:10",0.0,10.8,91.2,1014.2,303.1,2.2,2.8,326.5,0.00,9.5,130.0,"20:04:16",1
"21/03/25","20:20",0.0,10.5,91.4,1014.2,314.0,2.2,2.8,315.6,0.00,9.2,130.0,"20:19:52",1
"21/03/25","20:30",0.0,10.2,91.8,1014.2,293.9,2.1,2.5,304.8,0.00,9.0,130.0,"20:20:24",1
"21/03/25","20:40",0.0,10.1,92.0,1014.7,299.9,2.2,3.4,327.2,0.00,8.9,130.0,"20:39:28",1
"21/03/25","20:50",0.0,10.0,92.2,1014.5,305.9,2.3,3.1,305.7,0.00,8.8,130.0,"20:47:20",1
"21/03/25","21:00",0.0,9.8,92.4,1014.5,294.2,2.1,2.6,301.6,0.00,8.7,130.0,"20:58:16",1
"21/03/25","21:10",0.0,9.6,92.6,1014.5,293.2,2.0,2.6,296.6,0.00,8.5,130.0,"21:03:12",1
"21/03/25","21:20",0.0,9.5,92.8,1014.7,310.7,2.3,3.9,319.2,0.00,8.4,130.0,"21:16:00",1
"21/03/25","21:30",0.0,9.3,92.9,1014.7,308.1,1.6,2.8,332.4,0.00,8.3,130.0,"21:22:40",1
"21/03/25","21:40",0.0,9.2,93.1,1014.5,302.3,2.0,3.7,323.4,0.00,8.2,130.0,"21:34:00",1
"21/03/25","21:50",0.0,9.0,93.2,1014.5,311.6,1.8,2.9,322.8,0.00,8.0,130.0,"21:40:56",1
"21/03/25","22:00",0.0,8.9,93.3,1014.2,288.6,1.2,3.2,329.8,0.00,7.9,130.0,"21:54:32",1
"21/03/25","22:10",0.0,8.9,93.5,1014.2,291.4,2.1,2.9,330.0,0.00,7.9,130.0,"22:08:16",1
"21/03/25","22:20",0.0,8.8,93.5,1014.2,316.1,2.2,3.5,324.5,0.00,7.9,130.0,"22:16:08",1
"21/03/25","22:30",0.0,8.7,93.6,1014.2,324.5,1.5,2.7,304.6,0.00,7.8,130.0,"22:24:48",1
"21/03/25","22:40",0.0,8.3,93.7,1014.2,312.1,1.8,3.4,319.9,0.00,7.4,130.0,"22:30:56",1
"21/03/25","22:50",0.0,8.1,93.9,1014.2,308.0,1.8,2.7,305.4,0.00,7.2,130.0,"22:49:04",1
"21/03/25","23:00",0.0,8.0,93.9,1014.2,290.9,1.3,2.8,285.5,0.00,7.1,130.0,"22:50:16",1
"21/03/25","23:10",0.0,8.2,94.1,1013.8,306.3,2.5,4.0,311.2,0.00,7.3,130.0,"23:05:24",1
"21/03/25","23:20",0.0,8.3,94.0,1014.0,309.4,2.0,3.9,307.3,0.00,7.4,130.0,"23:10:48",1
"21/03/25","23:30",0.0,7.9,94.1,1013.8,311.3,2.0,2.6,327.1,0.00,7.1,130.0,"23:21:20",1
"21/03/25","23:40",0.0,7.5,94.2,1014.0,301.2,1.2,2.0,313.5,0.00,6.7,130.0,"23:39:20",1
"21/03/25","23:50",0.0,7.4,94.4,1014.0,308.0,1.8,3.3,325.4,0.00,6.6,130.0,"23:48:16",1
"21/03/25","24:00",0.0,7.4,94.5,1014.0,311.4,1.8,2.9,317.1,0.00,6.6,130.0,"23:55:28",1
